Home > Weather > Mechernich > Past weeks

Flag for Germany Past Weather in Mechernich, North Rhine-Westphalia, Germany — Yesterday and Last 2 Weeks

Now
64 °F

Partly sunny.


Feels Like: 64 °F
Forecast: 53 / 64 °F
Wind: 5 mph from Southwest

Location: Noervenich

Current Time: Jun 27, 2016 at 3:14:22 PM

Latest Report: Jun 27, 2016 at 2:20 PM


Visibility: N/A

Pressure: 30.07 "Hg

Humidity: 78%

Dew Point: 57 °F

Location of MechernichLocation

Past Weather in Mechernich — Graph

°F

Mechernich Temperature Yesterday

Maximum temperature yesterday: 66 °F (at 2:20 PM)
Minimum temperature yesterday: 52 °F (at 5:20 AM)
Average temperature yesterday: 59 °F

High & Low Weather Summary for the Past Weeks

 TemperatureHumidityPressure
High91 °F (Jun 23, 2:20 PM)100% (Jun 16, 11:20 PM)30.27 "Hg (Jun 16, 11:20 PM)
Low48 °F (Jun 16, 4:20 AM)41% (Jun 23, 4:20 PM)29.47 "Hg (Jun 14, 5:20 PM)
Average62 °F81%29.91 "Hg
* Reported Jun 12 1:20 PM — Jun 27 1:20 PM, Mechernich, Weather by CustomWeather, © 2016

Note: Actual official high and low records may vary slightly from our data, if they occured in-between our weather recording intervals... More about our weather records

Advertising

Mechernich Weather History for the Previous 24 Hours

Scroll right to see more
 ConditionsComfort  
Time TempWeatherWind HumidityBarometerVisibility
1:20 PM
Mon, Jun 27
64 °FPartly sunny.5 mph73%30.07 "HgN/A
12:20 PM63 °FPartly sunny.7 mph73%30.09 "HgN/A
11:20 AM63 °FPartly sunny.3 mph68%30.09 "HgN/A
10:20 AM61 °FLight rain. Broken clouds.5 mph72%30.09 "HgN/A
9:20 AM59 °FLight rain. Partly sunny.5 mph72%30.09 "HgN/A
8:20 AM57 °FPartly sunny.2 mph82%30.09 "HgN/A
7:20 AM57 °FPartly sunny.3 mph77%30.09 "HgN/A
6:20 AM55 °FPassing clouds.6 mph77%30.09 "HgN/A
5:20 AM54 °FPassing clouds.3 mph88%30.09 "HgN/A
4:20 AM54 °FPassing clouds.1 mph88%30.09 "HgN/A
3:20 AM54 °FPassing clouds.2 mph88%30.09 "HgN/A
2:20 AM54 °FPassing clouds.3 mph88%30.09 "HgN/A
1:20 AM54 °FPassing clouds.2 mph88%30.09 "HgN/A
12:20 AM55 °FPassing clouds.3 mph82%30.09 "HgN/A
11:20 PM
Sun, Jun 26
57 °FPassing clouds.5 mph82%30.09 "HgN/A
10:20 PM57 °FPassing clouds.3 mph88%30.09 "HgN/A
9:20 PM61 °FPassing clouds.2 mph77%30.07 "HgN/A
8:20 PM61 °FPassing clouds.3 mph72%30.07 "HgN/A
7:20 PM63 °FPassing clouds.7 mph68%30.07 "HgN/A
6:20 PM59 °FPartly sunny.7 mph77%30.07 "HgN/A
5:20 PM59 °FSprinkles. Partly sunny.13 mph82%30.07 "HgN/A
4:20 PM66 °FBroken clouds.9 mph60%30.07 "HgN/A
3:20 PM66 °FPartly sunny.7 mph60%30.04 "HgN/A
Weather by CustomWeather, © 2016

See weather overviewHow to use our weather pages